FW6234 Weather Reports


Display with metric or nautical units.
time (UTC)temp
F
wind
direction
speed
MPH
gust
MPH
rain 1hr
in
rain 24hr
in
rain mn
in
humidity
%
barometer
mb
20260507004025 66 13 6.0 15.0 0.00 0.00 0.00 19 1019.5
20260507003523 67 47 9.0 16.0 0.00 0.00 0.00 19 1019.7
20260507003049 67 355 7.0 16.0 0.00 0.00 0.00 18 1019.5
20260507002521 67 27 6.0 13.0 0.00 0.00 0.00 19 1019.5
20260507002021 68 46 7.0 13.0 0.00 0.00 0.00 19 1019.4
20260507001541 68 25 5.0 13.0 0.00 0.00 0.00 19 1019.3
20260507001021 68 25 7.0 14.0 0.00 0.00 0.00 19 1019.2
20260507000521 68 10 8.0 14.0 0.00 0.00 0.00 18 1019.2
20260507000040 69 36 8.0 13.0 0.00 0.00 0.00 18 1019.1
20260506235521 68 1 5.0 16.0 0.00 0.00 0.00 19 1019.0
20260506235021 68 38 7.0 16.0 0.00 0.00 0.00 18 1018.9
20260506234536 68 18 10.0 18.0 0.00 0.00 0.00 18 1019.0
20260506234022 68 56 9.0 18.0 0.00 0.00 0.00 18 1018.9
20260506233522 69 4 12.0 18.0 0.00 0.00 0.00 18 1019.1
20260506233041 69 1 9.0 17.0 0.00 0.00 0.00 19 1019.0
20260506232521 68 26 8.0 17.0 0.00 0.00 0.00 18 1018.9
20260506232021 68 75 9.0 16.0 0.00 0.00 0.00 19 1019.0
20260506231541 68 25 8.0 16.0 0.00 0.00 0.00 20 1019.1
20260506231022 69 44 9.0 16.0 0.00 0.00 0.00 19 1019.0
20260506230521 69 39 9.0 16.0 0.00 0.00 0.00 19 1018.9
20260506230043 69 346 8.0 15.0 0.00 0.00 0.00 21 1018.9
20260506225524 69 39 6.0 15.0 0.00 0.00 0.00 21 1018.9
20260506225024 69 1 7.0 17.0 0.00 0.00 0.00 21 1019.0
20260506224536 69 17 10.0 17.0 0.00 0.00 0.00 20 1018.9
20260506224021 69 32 8.0 18.0 0.00 0.00 0.00 20 1018.8
20260506223523 69 13 10.0 18.0 0.00 0.00 0.00 20 1019.0
20260506223047 69 32 9.0 16.0 0.00 0.00 0.00 21 1019.1
20260506222521 69 25 10.0 16.0 0.00 0.00 0.00 21 1018.9
20260506222025 69 56 8.0 20.0 0.00 0.00 0.00 21 1019.1
20260506221541 69 6 12.0 20.0 0.00 0.00 0.00 20 1019.2
20260506221028 69 45 10.0 20.0 0.00 0.00 0.00 19 1019.0
20260506220524 69 50 14.0 20.0 0.00 0.00 0.00 19 1019.2
20260506220044 69 42 11.0 20.0 0.00 0.00 0.00 20 1019.2
20260506215525 69 23 14.0 22.0 0.00 0.00 0.00 19 1019.1
20260506215025 69 49 9.0 22.0 0.00 0.00 0.00 21 1019.2
20260506214537 69 9 8.0 22.0 0.00 0.00 0.00 22 1019.1
20260506214021 69 36 10.0 19.0 0.00 0.00 0.00 22 1019.2
20260506213520 69 44 11.0 19.0 0.00 0.00 0.00 23 1019.2
20260506213037 69 33 7.0 19.0 0.00 0.00 0.00 24 1019.2
20260506212521 70 22 7.0 19.0 0.00 0.00 0.00 22 1019.3
20260506212025 69 29 9.0 18.0 0.00 0.00 0.00 24 1019.3
20260506211536 69 20 9.0 18.0 0.00 0.00 0.00 23 1019.2
20260506211023 69 56 7.0 21.0 0.00 0.00 0.00 24 1019.1
20260506210524 69 52 9.0 21.0 0.00 0.00 0.00 22 1019.2
20260506210045 68 37 9.0 23.0 0.00 0.00 0.00 22 1019.1
20260506205526 68 1 10.0 23.0 0.00 0.00 0.00 24 1019.2
20260506205026 68 41 12.0 23.0 0.00 0.00 0.00 23 1019.3
20260506204547 69 24 11.0 20.0 0.00 0.00 0.00 22 1019.3
20260506204021 69 25 12.0 27.0 0.00 0.00 0.00 22 1019.3
20260506203521 69 360 12.0 27.0 0.00 0.00 0.00 22 1019.2
20260506203037 69 27 11.0 20.0 0.00 0.00 0.00 25 1018.9
20260506202523 69 21 12.0 20.0 0.00 0.00 0.00 25 1019.1
20260506202024 69 39 7.0 20.0 0.00 0.00 0.00 23 1019.0
20260506201536 68 27 12.0 20.0 0.00 0.00 0.00 23 1019.1
20260506201021 69 49 9.0 18.0 0.00 0.00 0.00 24 1019.0
20260506200524 68 17 11.0 20.0 0.00 0.00 0.00 23 1019.0
20260506200037 68 14 7.0 22.0 0.00 0.00 0.00 23 1019.1
20260506195520 68 53 10.0 22.0 0.00 0.00 0.00 21 1019.2
20260506195020 68 356 10.0 22.0 0.00 0.00 0.00 21 1019.3
20260506194540 68 48 10.0 22.0 0.00 0.00 0.00 25 1019.0
20260506194024 67 58 10.0 22.0 0.00 0.00 0.00 25 1019.1
20260506193524 67 19 8.0 21.0 0.00 0.00 0.00 23 1019.1
20260506193041 68 1 10.0 24.0 0.00 0.00 0.00 22 1019.1
20260506192526 67 56 10.0 24.0 0.00 0.00 0.00 25 1019.1
20260506192024 67 7 9.0 21.0 0.00 0.00 0.00 26 1019.1
20260506191537 67 32 11.0 21.0 0.00 0.00 0.00 25 1019.0
20260506191024 67 32 10.0 20.0 0.00 0.00 0.00 24 1019.0
20260506190520 67 1 9.0 21.0 0.00 0.00 0.00 26 1018.9
20260506190037 66 13 11.0 21.0 0.00 0.00 0.00 26 1019.2
20260506185520 67 37 10.0 18.0 0.00 0.00 0.00 27 1019.2
20260506185023 66 51 8.0 18.0 0.00 0.00 0.00 25 1019.1
20260506184543 66 338 4.0 20.0 0.00 0.00 0.00 26 1019.1
20260506184023 66 13 8.0 20.0 0.00 0.00 0.00 26 1019.3
20260506183524 66 360 6.0 17.0 0.00 0.00 0.00 28 1019.3
20260506183044 66 1 11.0 20.0 0.00 0.00 0.00 27 1019.3
20260506182523 66 2 7.0 21.0 0.00 0.00 0.00 29 1019.2
20260506182022 66 25 12.0 21.0 0.00 0.00 0.00 29 1019.2
20260506181543 66 23 13.0 21.0 0.00 0.00 0.00 29 1019.1
20260506181021 67 37 14.0 23.0 0.00 0.00 0.00 29 1018.9
20260506180521 66 50 13.0 23.0 0.00 0.00 0.00 30 1019.1
20260506180050 65 47 13.0 23.0 0.00 0.00 0.00 29 1019.2
20260506175520 65 19 11.0 19.0 0.00 0.00 0.00 28 1019.3
20260506175023 65 30 10.0 20.0 0.00 0.00 0.00 28 1019.3
20260506174545 65 56 12.0 20.0 0.00 0.00 0.00 29 1019.3
20260506174021 64 53 7.0 20.0 0.00 0.00 0.00 30 1019.3
20260506173524 63 19 10.0 20.0 0.00 0.00 0.00 31 1019.3
20260506173038 61 60 8.0 14.0 0.00 0.00 0.00 31 1019.2
20260506172520 61 48 3.0 13.0 0.00 0.00 0.00 34 1019.2
20260506172024 62 17 6.0 13.0 0.00 0.00 0.00 35 1019.1
20260506171549 62 44 5.0 16.0 0.00 0.00 0.00 36 1018.9
20260506171023 61 297 3.0 16.0 0.00 0.00 0.00 36 1018.9
20260506170522 60 320 8.0 16.0 0.00 0.00 0.00 37 1019.1
20260506170056 60 257 4.0 12.0 0.00 0.00 0.00 37 1019.0
20260506165521 60 269 4.0 12.0 0.00 0.00 0.00 37 1019.1
20260506165021 59 274 3.0 11.0 0.00 0.00 0.00 38 1019.1
20260506164537 60 276 4.0 11.0 0.00 0.00 0.00 37 1019.1
20260506164022 60 360 4.0 10.0 0.00 0.00 0.00 36 1019.1
20260506163524 61 274 3.0 11.0 0.00 0.00 0.00 37 1019.0
20260506163055 60 283 4.0 11.0 0.00 0.00 0.00 39 1019.1
20260506162527 59 266 5.0 10.0 0.00 0.00 0.00 37 1019.1
20260506162026 59 360 4.0 15.0 0.00 0.00 0.00 37 1019.1
20260506161544 59 273 7.0 15.0 0.00 0.00 0.00 37 1019.0
20260506161023 58 352 5.0 11.0 0.00 0.00 0.00 38 1018.9
20260506160523 58 265 4.0 15.0 0.00 0.00 0.00 39 1018.9
20260506160045 57 314 5.0 15.0 0.00 0.00 0.00 38 1018.9
20260506155523 57 316 6.0 16.0 0.00 0.00 0.00 39 1019.0
20260506155021 56 327 6.0 16.0 0.00 0.00 0.00 39 1019.0
20260506154605 56 320 6.0 15.0 0.00 0.00 0.00 39 1018.9
20260506154023 56 156 4.0 15.0 0.00 0.00 0.00 41 1019.0
20260506153521 56 341 5.0 15.0 0.00 0.00 0.00 40 1019.1
20260506153043 55 307 7.0 15.0 0.00 0.00 0.00 40 1018.9
20260506152524 55 325 7.0 13.0 0.00 0.00 0.00 41 1019.0
20260506152024 54 278 5.0 14.0 0.00 0.00 0.00 41 1019.0
20260506151536 54 279 7.0 14.0 0.00 0.00 0.00 41 1019.1
20260506151024 54 276 6.0 14.0 0.00 0.00 0.00 41 1019.1
20260506150524 54 275 5.0 16.0 0.00 0.00 0.00 42 1019.3
20260506150044 53 270 8.0 16.0 0.00 0.00 0.00 43 1019.2
20260506145527 52 134 1.0 5.0 0.00 0.00 0.00 45 1019.3
20260506145024 50 78 1.0 4.0 0.00 0.00 0.00 45 1019.3
20260506144545 49 78 1.0 4.0 0.00 0.00 0.00 46 1019.4
20260506144023 48 81 2.0 4.0 0.00 0.00 0.00 47 1019.2
20260506143527 47 73 2.0 4.0 0.00 0.00 0.00 49 1019.4
20260506143053 46 0 0.0 5.0 0.00 0.00 0.00 50 1019.4
20260506142522 45 57 2.0 5.0 0.00 0.00 0.00 51 1019.4
20260506142023 44 57 3.0 5.0 0.00 0.00 0.00 51 1019.5
20260506141538 43 48 3.0 6.0 0.00 0.00 0.00 52 1019.4
20260506141024 42 50 3.0 6.0 0.00 0.00 0.00 54 1019.4
20260506140525 41 48 3.0 7.0 0.00 0.00 0.00 55 1019.4
20260506140045 40 47 4.0 7.0 0.00 0.00 0.00 56 1019.3
20260506135524 39 41 5.0 7.0 0.00 0.00 0.00 59 1019.0
20260506135023 37 43 4.0 5.0 0.00 0.00 0.00 60 1018.9
20260506134545 36 39 3.0 5.0 0.00 0.00 0.00 60 1018.9
20260506134025 36 32 1.0 3.0 0.00 0.00 0.00 61 1018.7
20260506133523 36 32 2.0 3.0 0.00 0.00 0.00 61 1018.8
20260506133042 35 31 0.0 4.0 0.00 0.00 0.00 65 1018.8
20260506132524 34 31 0.0 5.0 0.00 0.00 0.00 66 1018.8
20260506132021 33 31 3.0 5.0 0.00 0.00 0.00 66 1018.7
20260506131536 33 30 2.0 4.0 0.00 0.00 0.00 65 1018.6
20260506131023 33 30 1.0 7.0 0.00 0.00 0.00 65 1018.5
20260506130521 32 18 2.0 7.0 0.00 0.00 0.00 69 1018.4
20260506130036 30 26 5.0 7.0 0.00 0.00 0.00 70 1018.4
20260506125521 29 44 3.0 5.0 0.00 0.00 0.00 70 1018.2
20260506125020 29 58 2.0 5.0 0.00 0.00 0.00 70 1018.1
20260506124536 28 58 3.0 5.0 0.00 0.00 0.00 70 1018.1
20260506124023 28 60 0.0 3.0 0.00 0.00 0.00 69 1018.0
20260506123521 29 0 0.0 3.0 0.00 0.00 0.00 69 1018.0
20260506123044 29 60 2.0 4.0 0.00 0.00 0.00 68 1018.0
20260506122523 29 60 2.0 4.0 0.00 0.00 0.00 68 1018.0
20260506122022 30 41 1.0 3.0 0.00 0.00 0.00 67 1017.8
20260506121544 30 41 1.0 3.0 0.00 0.00 0.00 68 1017.8
20260506121024 30 41 2.0 3.0 0.00 0.00 0.00 68 1017.7
20260506120524 30 41 0.0 2.0 0.00 0.00 0.00 68 1017.7
20260506120052 30 0 0.0 3.0 0.00 0.00 0.00 68 1017.6
20260506115520 30 0 0.0 3.0 0.00 0.00 0.00 68 1017.5
20260506115021 31 41 1.0 2.0 0.00 0.00 0.00 68 1017.5
20260506114543 31 41 1.0 3.0 0.00 0.00 0.00 68 1017.4
20260506114021 31 41 1.0 3.0 0.00 0.00 0.00 68 1017.3
20260506113521 31 41 0.0 3.0 0.00 0.00 0.00 68 1017.3
20260506113044 31 41 2.0 3.0 0.00 0.00 0.00 68 1017.1
20260506112526 31 42 0.0 3.0 0.00 0.00 0.00 68 1017.2
20260506112028 31 42 1.0 3.0 0.00 0.00 0.00 67 1017.0
20260506111543 31 42 2.0 3.0 0.00 0.00 0.00 66 1017.0
20260506111023 31 42 1.0 3.0 0.00 0.00 0.00 66 1017.0
20260506110523 32 42 1.0 3.0 0.00 0.00 0.00 67 1017.0
20260506110044 32 0 0.0 3.0 0.00 0.00 0.00 67 1016.8
20260506105524 32 42 1.0 3.0 0.00 0.00 0.00 66 1016.8
20260506105021 32 42 1.0 3.0 0.00 0.00 0.00 65 1016.9
20260506104535 33 42 1.0 4.0 0.00 0.00 0.00 64 1016.8
20260506104021 33 42 1.0 4.0 0.00 0.00 0.00 64 1016.6
20260506103521 33 42 1.0 4.0 0.00 0.00 0.00 64 1016.8
20260506103035 34 42 0.0 4.0 0.00 0.00 0.00 65 1016.8
20260506102526 34 42 0.0 4.0 0.00 0.00 0.00 65 1016.8
20260506102024 33 46 2.0 4.0 0.00 0.00 0.00 65 1016.8
20260506101536 33 49 3.0 4.0 0.00 0.00 0.00 64 1016.8
20260506101023 34 50 0.0 2.0 0.00 0.00 0.00 64 1016.7
20260506100523 34 0 0.0 3.0 0.00 0.00 0.00 62 1016.7
20260506100046 35 0 1.0 3.0 0.00 0.00 0.00 62 1016.6
20260506095523 35 50 0.0 2.0 0.00 0.00 0.00 61 1016.7
20260506095023 36 0 0.0 3.0 0.00 0.00 0.00 62 1016.6
20260506094551 36 0 1.0 3.0 0.00 0.00 0.00 60 1016.6
20260506094023 37 50 1.0 3.0 0.00 0.00 0.00 60 1016.6
20260506093523 37 50 1.0 3.0 0.00 0.00 0.00 60 1016.6
20260506093037 37 50 1.0 3.0 0.00 0.00 0.00 59 1016.6
20260506092524 38 50 0.0 2.0 0.00 0.00 0.00 59 1016.5
20260506092024 38 50 0.0 3.0 0.00 0.00 0.00 59 1016.4
20260506091537 38 0 1.0 3.0 0.00 0.00 0.00 57 1016.4
20260506091024 39 50 1.0 3.0 0.00 0.00 0.00 57 1016.3
20260506090523 40 50 2.0 4.0 0.00 0.00 0.00 56 1016.2
20260506090036 41 50 2.0 4.0 0.00 0.00 0.00 55 1016.1
20260506085523 42 50 2.0 4.0 0.00 0.00 0.00 53 1016.0
20260506085023 42 50 2.0 4.0 0.00 0.00 0.00 51 1015.9
20260506084546 43 50 1.0 3.0 0.00 0.00 0.00 52 1015.8
20260506084023 43 0 1.0 4.0 0.00 0.00 0.00 52 1015.9
20260506083523 44 50 1.0 4.0 0.00 0.00 0.00 50 1015.9
20260506083041 44 50 2.0 4.0 0.00 0.00 0.00 49 1015.9
20260506082523 45 50 2.0 3.0 0.00 0.00 0.00 48 1015.9
20260506082022 46 0 0.0 2.0 0.00 0.00 0.00 47 1015.9
20260506081538 46 0 0.0 2.0 0.00 0.00 0.00 47 1015.9
20260506081024 46 0 0.0 3.0 0.00 0.00 0.00 47 1015.9
20260506080524 46 0 1.0 4.0 0.00 0.00 0.00 48 1015.9
20260506073524 47 0 0.0 0.0 0.00 0.00 0.00 46 1015.9
20260506073046 47 0 0.0 0.0 0.00 0.00 0.00 48 1015.8
20260506072523 47 0 0.0 0.0 0.00 0.00 0.00 45 1015.8
20260506072022 47 0 0.0 0.0 0.00 0.00 0.00 43 1015.8
20260506071540 47 0 0.0 0.0 0.00 0.00 0.00 43 1015.7
20260506071022 47 0 0.0 0.0 0.00 0.00 0.00 46 1015.7
20260506070524 48 0 0.0 0.0 0.00 0.00 0.00 43 1015.6
20260506062020 51 325 2.0 6.0 0.00 0.00 0.00 36 1015.5
20260506061543 51 324 3.0 7.0 0.00 0.00 0.00 36 1015.6
20260506061020 51 286 3.0 7.0 0.00 0.00 0.00 36 1015.5
20260506060521 51 339 3.0 7.0 0.00 0.00 0.00 36 1015.5
20260506051024 51 254 1.0 4.0 0.00 0.00 0.00 37 1015.3
20260506050523 52 193 1.0 6.0 0.00 0.00 0.00 36 1015.3
20260506045023 52 288 1.0 6.0 0.00 0.00 0.00 36 1015.1
20260506044546 53 0 1.0 5.0 0.00 0.00 0.00 36 1015.1
20260506044021 53 311 2.0 5.0 0.00 0.00 0.00 35 1015.1
20260506043520 53 224 1.0 7.0 0.00 0.00 0.00 35 1015.0
20260506043039 53 283 3.0 7.0 0.00 0.00 0.00 36 1015.0
20260506042523 53 306 3.0 5.0 0.00 0.00 0.00 34 1014.9
20260506042023 53 309 2.0 5.0 0.00 0.00 0.00 35 1014.9
20260506041536 53 285 1.0 5.0 0.00 0.00 0.00 34 1014.8
20260506041023 54 285 2.0 7.0 0.00 0.00 0.00 34 1014.6
20260506040523 54 335 3.0 7.0 0.00 0.00 0.00 34 1014.5
20260506040054 54 301 1.0 8.0 0.00 0.00 0.00 34 1014.5
20260506035523 54 302 2.0 8.0 0.00 0.00 0.00 34 1014.3
20260506035024 54 335 2.0 8.0 0.00 0.00 0.00 33 1014.1
20260506034548 54 359 3.0 8.0 0.00 0.00 0.00 33 1014.0
20260506034024 54 322 2.0 8.0 0.00 0.00 0.00 33 1013.8
20260506033523 54 349 3.0 7.0 0.00 0.00 0.00 33 1013.7
20260506033042 55 313 3.0 7.0 0.00 0.00 0.00 33 1013.5
20260506032523 55 273 2.0 8.0 0.00 0.00 0.00 33 1013.5
20260506032023 55 305 2.0 8.0 0.00 0.00 0.00 33 1013.4
20260506031552 55 291 3.0 8.0 0.00 0.00 0.00 33 1013.3
20260506031025 55 290 3.0 8.0 0.00 0.00 0.00 33 1013.1
20260506030522 55 295 3.0 8.0 0.00 0.00 0.00 33 1013.0
20260506030037 55 360 1.0 7.0 0.00 0.00 0.00 33 1012.9
20260506025522 55 317 2.0 7.0 0.00 0.00 0.00 33 1012.8
20260506025022 56 278 2.0 8.0 0.00 0.00 0.00 32 1012.7
20260506024537 56 297 3.0 8.0 0.00 0.00 0.00 32 1012.6
20260506024023 56 282 3.0 7.0 0.00 0.00 0.00 31 1012.5
20260506023520 57 231 1.0 8.0 0.00 0.00 0.00 31 1012.4
20260506023041 57 330 3.0 8.0 0.00 0.00 0.00 30 1012.2
20260506022523 57 345 4.0 9.0 0.00 0.00 0.00 30 1012.2
20260506022023 57 314 4.0 9.0 0.00 0.00 0.00 30 1012.0
20260506021540 58 327 4.0 9.0 0.00 0.00 0.00 30 1011.9
20260506021022 58 271 4.0 9.0 0.00 0.00 0.00 30 1011.9
20260506020523 58 299 4.0 10.0 0.00 0.00 0.00 30 1011.8
20260506020038 58 312 3.0 10.0 0.00 0.00 0.00 29 1011.6
20260506015523 59 254 5.0 10.0 0.00 0.00 0.00 29 1011.6
20260506015023 59 288 5.0 9.0 0.00 0.00 0.00 29 1011.6
20260506014536 59 318 4.0 10.0 0.00 0.00 0.00 29 1011.5
20260506014023 59 316 4.0 11.0 0.00 0.00 0.00 29 1011.3
20260506013522 59 286 5.0 11.0 0.00 0.00 0.00 29 1011.4
20260506013035 60 276 3.0 11.0 0.00 0.00 0.00 29 1011.3
20260506012626 60 351 4.0 12.0 0.00 0.00 0.00 29 1011.4
20260506012025 60 335 4.0 12.0 0.00 0.00 0.00 29 1011.4
20260506011540 60 280 5.0 12.0 0.00 0.00 0.00 29 1011.4
20260506011023 60 331 3.0 10.0 0.00 0.00 0.00 29 1011.4
20260506010522 60 285 3.0 10.0 0.00 0.00 0.00 30 1011.4
20260506010043 59 287 2.0 7.0 0.00 0.00 0.00 30 1011.4
20260506005523 59 278 2.0 7.0 0.00 0.00 0.00 30 1011.4
20260506005022 60 276 2.0 10.0 0.00 0.00 0.00 30 1011.5
20260506004537 60 169 1.0 10.0 0.00 0.00 0.00 30 1011.5